{"data":{"norad_id":58037,"epoch":"2026-05-24T11:07:23.977344Z","epoch_age_seconds":121382,"freshness":"FRESH","line1":"1 58037U 23156K   26144.46347196  .00196691  00000+0  64086-2 0  9994","line2":"2 58037  53.1582 176.2398 0003416 182.2164 177.8823 15.30553398146631","mean_motion":15.30553398,"eccentricity":0.0003416,"inclination_deg":53.1582,"raan_deg":176.2398,"arg_perigee_deg":182.2164,"mean_anomaly_deg":177.8823,"bstar":0.0064086,"rev_number":14663,"period_min":94.08361719896,"perigee_km":471.81934504194,"apogee_km":476.50083441365,"semimajor_km":6852.2970897278,"source":"CELESTRAK","updated_at":"2026-05-25T13:38:18.495996Z"}}